Temperature
19 18 18 18 18 18 18 18 18 18 18 18 18 18 18 18 18 18 18 18 17 17 17 17 17 17 17 17 17 17 17 17 17 17 16 16 16 16 16 16 16 16 16
18 19 18 18 18 18 18 18 18 18 18 18 18 18 18 18 18 18 18 17 17 17 17 17 17 17 17 17 17 17 17 17 17 17 16 16 16 16 16 16 16 16 16
18 18 18 18 18 18 18 18 18 18 18 18 18 18 18 18 18 18 17 17 17 17 17 17 17 17 17 17 17 17 17 17 17 17 16 16 16 16 16 16 16 16 16
18 18 18 18 18 18 18 18 18 18 18 18 18 18 18 18 18 17 17 17 17 17 17 17 17 17 17 17 17 17 17 17 16 16 16 16 16 16 16 16 16 16 16
18 18 18 18 18 18 18 18 18 18 18 18 18 18 18 18 18 17 17 17 17 17 17 17 17 17 17 17 17 17 17 17 16 16 16 16 16 16 16 16 16 16 16
18 18 18 18 18 18 18 18 18 18 18 18 18 18 18 18 17 17 17 17 17 17 17 17 17 17 17 17 17 17 17 16 16 16 16 16 16 16 16 16 16 16 16
18 18 18 18 18 18 18 18 18 18 18 18 18 18 18 17 17 17 17 17 17 17 17 17 17 17 17 17 17 17 16 16 16 16 16 16 16 16 16 16 15 15 15
18 18 18 18 18 18 18 18 18 18 18 18 18 18 17 17 17 17 17 17 17 17 17 17 17 17 17 17 17 17 16 16 16 16 16 16 16 16 16 16 15 15 15
18 18 18 18 18 18 18 18 18 18 18 18 18 18 17 17 17 17 17 17 17 17 17 17 17 17 17 17 17 17 17 16 16 16 16 16 16 16 16 16 15 15 15
19 18 18 18 18 18 18 18 18 18 18 18 18 18 18 18 17 17 17 17 17 17 17 17 17 17 17 17 17 17 17 17 16 16 16 16 16 16 16 15 15 15 15
19 19 18 18 18 18 18 18 18 18 18 18 18 18 18 18 18 17 17 17 17 17 17 17 17 17 17 17 16 16 16 16 16 16 16 16 15 15 15 15 15 15 15
19 19 18 18 18 18 18 18 18 18 18 18 18 18 18 18 18 18 17 17 17 17 17 17 17 17 16 16 16 16 16 16 16 16 16 16 15 15 15 15 15 15 15
19 19 19 18 18 18 18 18 18 18 18 18 18 18 18 17 17 17 17 17 17 16 16 16 16 16 16 16 16 16 16 16 16 16 16 16 15 15 15 15 15 15 15
19 19 18 18 18 18 18 18 18 18 18 18 17 17 17 17 17 17 17 17 16 16 16 16 16 16 16 16 16 16 16 16 16 16 16 16 15 15 15 15 15 15 15
18 18 18 18 18 18 18 18 18 18 18 17 17 17 17 17 17 17 17 17 17 16 16 16 16 16 16 16 16 16 16 16 16 16 16 16 15 15 15 15 15 15 15
18 18 18 18 18 18 18 18 18 17 17 17 17 17 17 17 17 17 17 17 17 17 17 17 17 17 16 16 16 16 16 16 16 16 16 16 16 15 15 15 15 15 14
18 18 18 18 18 18 18 18 18 17 17 17 17 17 17 17 17 17 17 17 17 17 17 17 16 16 16 16 16 16 16 16 16 16 16 16 15 15 15 15 15 14 14
18 18 18 18 18 18 17 17 17 17 17 17 17 17 17 17 17 17 17 17 17 17 17 17 17 16 16 16 16 16 16 16 16 16 16 15 15 15 15 15 15 14 14
18 18 18 18 17 17 17 17 17 17 17 17 17 17 17 17 17 17 17 17 17 17 16 16 16 16 16 16 16 16 16 16 16 16 15 15 15 15 15 15 15 14 14
18 18 18 18 17 17 17 17 17 17 17 17 17 17 17 17 17 16 16 16 16 16 16 16 16 16 16 16 16 16 16 16 15 15 15 15 15 15 15 15 15 14 14
18 18 18 17 17 17 17 17 17 17 17 17 17 17 17 16 16 16 16 16 16 16 16 16 16 16 16 15 15 15 15 15 15 15 15 15 15 15 15 15 14 14 14
18 18 17 17 17 17 17 17 17 17 17 17 17 16 16 16 16 16 16 16 16 16 16 16 16 16 16 15 15 15 15 15 15 15 15 15 15 15 15 15 15 14 14
17 17 17 17 17 17 17 17 16 17 17 17 16 16 16 16 16 16 16 16 16 16 16 16 16 16 15 15 15 15 15 15 15 15 15 15 15 15 15 15 14 14 14
17 17 17 17 17 17 17 16 16 16 16 16 16 16 16 16 16 16 16 16 16 16 16 15 15 15 15 15 15 15 15 15 15 15 14 14 14 14 14 14 14 14 14
17 17 17 17 17 17 16 16 16 16 16 16 16 16 16 16 16 16 16 16 16 16 15 15 15 15 15 15 15 15 15 14 14 14 14 14 14 14 14 14 14 14 14
17 17 17 16 16 16 16 16 16 16 16 16 16 16 16 16 16 15 15 15 15 15 15 15 15 15 15 15 15 15 15 14 14 14 14 14 14 14 14 14 14 14 13
Wind_Speed
2 1 1 2 2 3 2 2 2 2 2 2 2 3 3 5 6 7 8 11 12 12 12 12 12 12 13 13 13 13 12 12 11 11 10 10 9 9 9 9 9 8 8
2 2 1 1 1 2 3 3 2 2 1 2 2 2 4 5 7 7 7 10 12 12 11 11 11 11 13 13 13 13 12 12 12 11 10 10 9 9 9 9 8 9 8
3 2 2 1 1 3 3 2 1 1 1 2 2 2 3 3 5 7 7 8 9 10 11 11 11 11 11 12 13 12 12 12 11 10 10 10 9 9 8 8 8 8 8
5 3 2 1 2 2 2 2 2 2 1 1 1 1 1 2 4 6 7 7 7 7 8 10 11 11 11 11 12 12 12 11 11 10 10 9 9 8 8 8 8 8 8
4 3 2 1 2 2 1 2 2 2 2 1 1 1 1 1 1 4 5 6 7 7 7 8 10 11 11 11 11 11 11 11 11 11 11 10 9 9 8 8 8 9 8
4 3 2 2 2 2 2 2 2 2 2 2 2 1 1 1 1 1 3 4 6 7 7 7 7 7 10 10 10 11 11 10 11 10 10 10 9 9 9 9 8 8 8
4 3 2 2 2 3 3 3 2 2 1 2 2 2 3 2 1 0 1 2 3 5 6 6 6 6 6 8 9 9 10 10 10 10 10 9 9 8 8 8 8 8 8
4 4 4 3 3 3 2 2 3 2 1 1 2 2 2 3 2 1 1 2 2 3 4 5 5 5 5 5 7 8 8 9 9 10 10 9 8 8 8 7 6 7 8
4 4 4 4 3 3 3 3 3 3 2 1 1 3 3 2 1 2 1 1 2 2 3 4 5 6 6 6 6 8 8 8 8 9 9 9 9 9 8 8 8 7 7
3 4 4 4 3 3 3 3 3 3 3 2 1 1 2 3 2 0 2 1 0 2 2 3 3 5 7 7 7 8 8 8 8 9 9 9 9 9 9 9 9 8 8
3 3 4 4 3 2 2 3 2 2 2 3 1 1 1 1 2 2 1 2 1 1 2 3 3 4 6 8 7 8 9 9 9 9 9 9 9 9 9 9 9 8 8
2 3 3 3 3 3 2 2 2 3 2 2 1 1 2 2 2 2 2 2 1 2 1 1 3 3 6 8 8 10 9 9 9 9 8 8 8 9 9 9 8 8 7
2 3 3 3 3 3 2 2 2 2 2 2 2 1 1 2 2 2 3 2 1 1 1 1 3 4 6 7 8 9 9 10 10 9 9 9 8 8 8 8 7 7 7
3 3 3 3 3 3 3 2 2 2 1 2 1 1 1 1 2 2 3 3 1 1 1 2 2 4 5 7 9 10 9 10 11 11 10 10 9 9 8 8 8 8 7
2 3 3 3 3 3 3 3 2 2 1 1 1 1 1 1 1 2 3 4 4 2 3 3 3 3 5 7 9 9 9 11 11 11 11 11 10 9 9 9 8 8 8
3 3 3 3 3 3 3 3 2 2 2 1 1 1 1 1 1 1 2 2 3 4 3 4 4 3 4 5 8 9 10 10 11 11 11 11 11 10 10 10 10 9 9
3 4 4 4 3 3 3 3 3 3 2 2 1 1 1 1 1 1 1 2 2 3 3 3 3 2 3 3 4 7 8 8 9 12 12 12 12 12 12 12 11 10 10
3 4 4 4 4 3 3 4 3 3 3 3 3 2 2 1 1 1 1 2 2 3 3 3 2 1 3 4 4 4 5 7 8 11 13 13 13 13 13 13 13 12 11
3 3 3 4 4 3 3 4 4 4 4 4 3 3 3 2 2 2 2 2 2 2 2 3 3 2 1 2 1 3 4 3 6 8 12 13 14 14 14 14 14 13 13
4 4 4 4 4 3 3 3 3 3 3 3 3 3 3 3 3 3 2 2 2 2 2 2 2 2 1 1 2 2 2 2 3 4 6 8 10 12 14 14 14 14 14
4 4 3 3 3 3 3 3 3 3 3 3 2 3 3 3 4 3 2 2 2 2 2 2 2 1 2 1 3 3 3 2 3 2 2 4 5 5 8 12 15 15 15
3 3 3 3 4 3 4 4 4 3 3 3 3 2 2 2 3 3 4 4 4 4 4 3 3 3 4 4 3 3 2 1 2 2 3 3 3 4 6 9 13 15 16
2 3 3 3 4 5 5 5 5 4 4 4 4 4 3 2 2 2 3 3 4 5 7 6 5 6 5 5 5 3 3 4 4 3 2 3 3 4 6 8 12 14 15
3 3 3 4 4 5 7 7 6 4 4 5 5 5 4 3 3 3 2 2 3 4 4 5 6 7 6 6 6 6 5 3 3 2 3 3 3 4 4 6 10 14 14
3 3 3 4 5 6 7 8 6 3 3 5 5 5 5 5 5 5 3 2 3 5 5 6 7 8 8 8 6 3 2 2 3 3 3 3 2 2 2 3 6 10 12
4 4 4 5 5 5 7 8 7 3 4 4 3 4 6 7 7 7 5 4 4 5 3 3 3 5 5 6 7 6 6 4 3 3 3 3 2 2 2 2 2 4 6
Wind_Direction
160 170 178 175 184 184 178 169 165 155 166 175 181 172 168 168 168 173 178 183 184 184 185 186 187 189 188 187 186 184 184 186 188 190 191 191 192 196 196 197 194 196 193
166 159 143 150 169 180 169 164 162 149 147 144 138 152 152 157 165 165 173 182 186 187 187 188 187 190 192 192 190 189 191 192 193 195 198 198 199 203 202 204 204 200 199
176 168 154 166 188 177 154 137 119 123 139 132 132 141 140 147 158 166 175 178 184 189 189 189 189 193 195 195 196 195 196 198 194 193 193 193 197 199 199 201 204 202 204
164 151 153 180 182 160 142 134 130 120 119 112 100 124 123 129 151 163 169 173 177 183 190 193 195 198 199 198 197 197 195 193 189 189 188 191 195 198 200 204 207 204 204
160 152 145 166 152 130 132 148 125 127 125 118 125 113 114 122 159 162 165 170 174 179 186 197 202 206 204 202 199 198 196 193 192 193 194 195 198 200 204 207 209 208 210
160 164 148 143 132 122 119 130 134 131 142 146 117 90 58 68 100 143 177 163 174 184 189 194 200 207 207 204 200 198 195 194 192 193 196 197 201 205 210 211 209 209 212
169 163 148 139 135 139 157 160 136 129 110 115 90 47 18 26 58 194 135 143 168 179 180 187 190 190 194 196 193 193 197 196 195 197 198 199 201 203 205 207 211 211 213
174 169 157 158 152 144 147 146 135 130 144 128 123 105 38 2 355 19 108 160 177 166 175 189 188 177 173 170 183 194 197 198 199 197 196 195 197 200 202 201 202 206 212
175 170 164 162 161 156 163 169 163 151 162 207 154 140 143 204 288 338 319 173 168 176 193 180 180 178 175 172 177 188 193 195 197 196 196 198 202 203 205 208 209 210 213
173 167 159 160 164 158 166 182 171 165 153 177 229 187 166 158 151 308 329 322 203 172 187 175 159 166 171 170 180 188 191 193 195 199 202 204 208 209 212 215 217 219 221
175 165 163 164 171 174 180 177 158 147 152 166 168 163 117 107 136 154 227 293 325 273 189 175 160 162 170 173 180 190 194 194 196 201 204 209 214 218 219 220 221 224 227
187 186 176 174 177 176 184 181 161 155 161 156 157 155 160 164 179 159 183 210 245 287 248 186 179 177 182 183 192 192 192 194 197 202 206 211 217 221 222 222 224 225 224
203 211 194 186 187 187 182 172 164 161 163 167 189 206 198 205 181 163 155 180 202 280 290 255 217 191 194 190 194 195 198 201 201 205 209 215 220 219 218 219 220 218 218
206 200 185 180 180 174 180 166 159 169 152 174 196 206 218 227 182 168 165 156 150 307 289 260 249 215 199 194 201 198 203 206 206 209 211 214 217 218 214 212 215 216 217
199 185 178 178 178 170 169 157 153 169 153 167 193 208 226 253 195 186 172 165 162 191 250 250 240 234 207 202 206 201 207 212 214 216 215 214 215 215 213 212 214 216 216
192 181 184 184 182 173 166 161 166 178 166 201 198 181 235 244 215 220 188 181 169 171 214 238 233 230 210 211 208 203 209 212 218 220 219 218 217 217 216 215 218 219 218
185 185 192 189 185 179 172 166 175 179 184 216 233 195 213 202 214 247 207 187 181 166 194 251 247 229 199 218 205 209 218 218 224 224 222 221 223 224 221 220 221 222 223
190 190 186 186 194 190 179 176 188 186 186 205 223 197 210 200 218 237 204 203 205 193 181 216 246 221 217 216 206 211 220 224 227 227 225 226 227 227 225 225 225 225 225
187 189 183 186 191 191 188 188 191 194 199 208 205 199 214 190 220 245 227 215 221 218 183 185 225 225 232 216 194 229 230 233 232 233 231 233 232 231 230 229 226 224 224
188 193 195 190 189 192 194 194 193 195 198 206 209 208 208 197 207 221 234 225 213 201 188 185 216 232 236 237 173 212 246 245 243 238 228 228 231 233 232 229 227 226 226
202 198 192 188 187 191 201 192 194 193 198 212 226 222 221 209 206 207 214 212 199 197 197 200 219 229 234 206 216 212 223 246 262 232 220 236 225 230 235 234 231 229 226
206 187 188 190 202 221 209 186 179 190 195 202 218 231 233 213 218 214 214 211 200 200 206 207 211 216 229 224 213 206 197 207 268 240 197 243 213 235 241 233 232 229 227
205 206 206 203 218 230 214 202 197 192 198 203 208 216 233 236 216 224 239 245 245 231 211 201 208 219 217 216 199 204 207 213 234 230 190 246 235 242 244 240 235 229 226
209 214 216 219 226 235 221 212 206 206 213 214 214 213 215 228 232 204 219 270 278 271 247 220 217 223 223 215 202 203 207 223 261 253 185 219 237 246 256 249 241 231 227
225 225 221 221 228 242 227 216 201 205 219 230 226 219 211 213 222 194 187 229 274 288 283 254 235 232 225 215 198 167 177 188 258 262 207 194 229 249 262 258 250 234 227
223 223 235 235 232 240 236 223 205 200 217 237 244 234 219 217 218 197 192 203 240 262 279 301 278 259 244 232 211 196 195 203 227 251 224 187 213 197 269 266 246 235 226
Height
1530 1530 1530 1530 1530 1531 1531 1532 1532 1533 1533 1534 1535 1535 1536 1536 1536 1536 1536 1536 1536 1536 1537 1538 1539 1540 1541 1543 1544 1545 1547 1548 1550 1551 1552 1553 1554 1555 1556 1556 1557 1558 1559
1530 1530 1530 1530 1531 1531 1532 1532 1533 1533 1534 1534 1535 1535 1536 1536 1536 1536 1536 1536 1536 1536 1537 1538 1538 1539 1541 1542 1543 1545 1546 1547 1549 1550 1551 1552 1553 1554 1555 1555 1556 1557 1558
1530 1531 1531 1531 1531 1532 1532 1532 1533 1533 1534 1534 1535 1535 1535 1536 1536 1536 1536 1536 1536 1536 1537 1537 1538 1539 1540 1541 1542 1544 1545 1546 1547 1548 1549 1550 1551 1552 1553 1554 1555 1555 1556
1530 1531 1531 1531 1532 1532 1532 1532 1533 1533 1533 1534 1534 1535 1535 1535 1535 1535 1535 1535 1536 1536 1537 1537 1538 1539 1540 1540 1541 1543 1544 1545 1546 1547 1548 1549 1550 1551 1552 1552 1553 1554 1555
1530 1531 1531 1531 1532 1532 1532 1532 1533 1533 1533 1534 1534 1535 1535 1535 1535 1535 1535 1535 1535 1536 1537 1537 1538 1539 1539 1540 1541 1541 1542 1543 1544 1546 1547 1548 1549 1550 1551 1551 1552 1552 1553
1530 1530 1531 1531 1532 1532 1532 1532 1533 1533 1533 1534 1534 1534 1535 1535 1535 1535 1535 1535 1536 1536 1537 1537 1537 1538 1538 1539 1540 1541 1541 1542 1543 1545 1546 1547 1547 1548 1549 1550 1550 1551 1552
1530 1530 1530 1531 1531 1532 1532 1532 1533 1533 1534 1534 1534 1534 1535 1535 1535 1535 1535 1536 1536 1537 1537 1537 1537 1537 1538 1538 1539 1540 1541 1541 1542 1543 1544 1545 1546 1547 1547 1548 1548 1549 1550
1530 1530 1530 1530 1531 1531 1532 1532 1533 1533 1533 1534 1534 1534 1535 1536 1536 1536 1536 1536 1536 1536 1537 1537 1536 1537 1537 1538 1538 1539 1540 1540 1541 1542 1543 1544 1544 1545 1546 1546 1546 1547 1548
1529 1529 1529 1530 1530 1531 1531 1531 1532 1532 1532 1533 1534 1534 1534 1534 1535 1536 1536 1536 1536 1536 1536 1536 1536 1536 1536 1537 1537 1538 1539 1539 1540 1540 1541 1542 1543 1543 1544 1544 1545 1545 1546
1528 1528 1529 1529 1530 1530 1530 1531 1531 1532 1532 1532 1533 1533 1534 1533 1534 1534 1535 1535 1535 1535 1535 1535 1535 1535 1536 1536 1536 1537 1537 1538 1538 1539 1540 1540 1541 1541 1542 1542 1543 1543 1543
1527 1528 1528 1528 1529 1529 1529 1530 1530 1531 1531 1531 1531 1532 1532 1533 1533 1533 1533 1534 1534 1534 1534 1534 1534 1535 1535 1535 1535 1535 1536 1536 1537 1537 1538 1538 1539 1539 1540 1540 1541 1541 1541
1527 1527 1527 1527 1527 1527 1528 1528 1529 1530 1530 1530 1530 1531 1531 1531 1531 1532 1532 1532 1533 1533 1534 1533 1534 1533 1534 1533 1533 1534 1534 1534 1535 1535 1536 1536 1537 1537 1538 1538 1538 1538 1538
1526 1526 1526 1526 1526 1526 1527 1527 1528 1528 1529 1529 1529 1529 1530 1530 1531 1531 1531 1531 1531 1532 1532 1532 1532 1532 1532 1532 1532 1532 1532 1533 1533 1533 1534 1534 1535 1535 1535 1536 1536 1536 1536
1525 1525 1525 1525 1525 1525 1525 1526 1526 1527 1527 1527 1528 1528 1528 1529 1529 1529 1530 1530 1530 1530 1530 1530 1530 1530 1530 1530 1531 1531 1531 1531 1532 1532 1532 1532 1533 1533 1533 1533 1534 1534 1534
1524 1524 1524 1524 1523 1524 1524 1524 1525 1526 1526 1526 1526 1527 1527 1527 1527 1528 1528 1528 1529 1528 1528 1528 1528 1528 1528 1529 1529 1529 1529 1530 1530 1530 1530 1531 1531 1531 1531 1531 1531 1531 1531
1523 1523 1523 1522 1522 1522 1523 1523 1524 1524 1525 1524 1525 1525 1525 1525 1525 1526 1526 1526 1527 1527 1526 1525 1526 1526 1526 1527 1527 1527 1528 1528 1528 1528 1529 1529 1529 1529 1529 1528 1528 1529 1529
1521 1521 1520 1520 1520 1520 1521 1521 1522 1522 1523 1523 1523 1523 1523 1523 1523 1524 1524 1524 1524 1525 1524 1524 1524 1524 1524 1525 1525 1525 1526 1526 1526 1526 1526 1527 1527 1527 1527 1527 1526 1526 1526
1519 1519 1519 1518 1519 1519 1519 1519 1520 1520 1521 1521 1521 1521 1521 1521 1521 1522 1522 1522 1522 1522 1523 1522 1522 1522 1522 1522 1523 1523 1523 1523 1523 1524 1524 1524 1524 1524 1524 1524 1524 1524 1524
1517 1517 1517 1517 1517 1517 1518 1518 1518 1519 1519 1519 1519 1519 1519 1519 1519 1519 1519 1519 1519 1520 1520 1520 1519 1519 1520 1520 1520 1520 1520 1520 1520 1521 1521 1521 1521 1521 1521 1521 1521 1521 1520
1515 1515 1515 1516 1515 1515 1515 1516 1516 1517 1517 1517 1517 1517 1518 1517 1517 1517 1517 1517 1517 1517 1517 1517 1517 1517 1517 1517 1517 1517 1517 1517 1517 1517 1518 1518 1518 1518 1517 1517 1517 1517 1517
1513 1513 1513 1513 1513 1513 1513 1514 1514 1515 1515 1514 1515 1515 1515 1515 1515 1515 1515 1515 1514 1514 1514 1514 1514 1514 1514 1514 1514 1514 1514 1514 1514 1514 1514 1514 1514 1513 1514 1513 1513 1513 1513
1510 1510 1510 1510 1511 1511 1511 1511 1512 1512 1512 1512 1512 1512 1513 1513 1513 1513 1512 1512 1512 1511 1510 1510 1510 1510 1510 1511 1511 1511 1511 1511 1510 1511 1510 1510 1510 1509 1509 1509 1509 1509 1509
1507 1507 1508 1508 1508 1508 1508 1509 1509 1509 1509 1509 1509 1510 1510 1510 1510 1510 1509 1509 1508 1508 1507 1507 1507 1506 1507 1507 1508 1508 1507 1507 1507 1507 1507 1505 1506 1505 1505 1505 1505 1505 1505
1505 1505 1505 1505 1505 1505 1505 1505 1505 1506 1505 1506 1506 1506 1506 1506 1506 1506 1506 1505 1505 1505 1504 1504 1503 1504 1504 1504 1504 1505 1504 1504 1504 1503 1503 1502 1501 1501 1501 1501 1501 1501 1501
1502 1502 1502 1502 1502 1502 1502 1502 1502 1502 1502 1502 1503 1503 1503 1503 1503 1503 1503 1502 1502 1501 1501 1501 1500 1500 1500 1500 1501 1501 1500 1500 1499 1498 1499 1498 1497 1497 1497 1497 1497 1497 1497
1499 1498 1498 1498 1498 1498 1498 1498 1499 1498 1498 1499 1499 1499 1500 1500 1500 1500 1499 1499 1498 1497 1497 1497 1497 1496 1496 1496 1496 1496 1496 1496 1495 1494 1494 1495 1494 1494 1493 1493 1493 1493 1493